Weather in Dedilov

Ukraine / Lviv District     49°56′06″N   24°21′51″E
temp.,
°C
wind,
m/s
gust,
m/s
humid.,
%
clouds,
%
prec.,
mm/h
press.,
hPa
HPBL,
m
11 may, tue
tue1100:00+11se411843 0.0 1019200
03:00+9ese49862 0.0 1019148
06:00+8ese411836 0.0 1019201
09:00+14se613685 0.0 1019526
12:00+18se79580 0.0 1018917
15:00+20se78540 0.0 10171160
18:00+19se69620 0.0 10151041
21:00+12ese412780 0.0 1015246
12 may, wed
wed1200:00+10ese413750 0.0 1015269
03:00+10ese4138615 0.0 1014266
06:00+9ese411945 0.0 1013212
09:00+15ese610770 0.0 1012548
12:00+16ese787986 0.1 1012977
15:00+14ese6979100 0.1 1012945
18:00+16se69640 0.0 10101479
21:00+11ese7137512 0.1 1011578
13 may, thu
thu1300:00+8ese512821 0.0 1010359
03:00+6ese412850 0.0 1008340
06:00+6ese4128561 0.0 1006346
09:00+9ese61281100 0.0 1005552
12:00+11se6886100 0.0 1004724
15:00+11se4993100 0.5 1003480
18:00+12sse4795100 0.8 1002278
21:00+12sse389690 0.8 1002264
14 may, fri
fri1400:00+11ssw379594 0.3 1003166
03:00+9s34935 0.3 100359
06:00+8s3692100 0.0 1004101
09:00+14ssw587998 0.0 1004669
12:00+16sw796466 0.5 10051506
15:00+16sw8105925 0.6 10051439
18:00+15w586625 0.1 10061214
21:00+10w338835 0.3 100727
15 may, sat
sat1500:00+9wsw348957 0.0 1009103
03:00+9sw369479 0.4 1009209
06:00+9wsw2694100 0.1 1010247
09:00+11wsw2487100 0.1 1011229
12:00+15wsw336693 0.1 10111189
15:00+17w236090 0.9 10101497
18:00+17nw22608 0.2 10101168
21:00+12n22852 0.3 101016